Time,TemperatureF,DewpointF,PressureIn,WindDirection,WindDirectionDegrees,WindSpeedMPH,WindSpeedGustMPH,Humidity,HourlyPrecipIn,Conditions,Clouds,dailyrainin,SolarRadiationWatts/m^2,SoftwareType,DateUTC
2013-01-18 00:03:00,39.1,24.3,30.17,SE,126,0.0,0.0,55,0.00,CLR,,0.00,0.0,WeatherDisplay:10.37,2013-01-18 08:03:00,
2013-01-18 00:08:00,39.3,24.0,30.17,SE,138,0.0,0.0,54,0.00,CLR,,0.00,0.0,WeatherDisplay:10.37,2013-01-18 08:08:00,
2013-01-18 00:13:00,39.6,23.9,30.18,SE,138,0.0,0.0,53,0.00,CLR,,0.00,0.0,WeatherDisplay:10.37,2013-01-18 08:13:00,
2013-01-18 00:18:00,39.7,23.0,30.17,SE,138,0.0,0.0,51,0.00,CLR,,0.00,0.0,WeatherDisplay:10.37,2013-01-18 08:18:00,
2013-01-18 00:23:00,39.7,23.5,30.18,SE,138,0.0,0.0,52,0.00,CLR,,0.00,0.0,WeatherDisplay:10.37,2013-01-18 08:23:00,
2013-01-18 00:28:00,39.9,23.7,30.17,SE,138,0.0,0.0,52,0.00,CLR,,0.00,0.0,WeatherDisplay:10.37,2013-01-18 08:28:00,
2013-01-18 00:33:00,39.9,23.7,30.17,SE,138,0.0,0.0,52,0.00,CLR,,0.00,0.0,WeatherDisplay:10.37,2013-01-18 08:33:00,
2013-01-18 00:38:00,39.6,22.9,30.18,SE,138,0.0,0.0,51,0.00,CLR,,0.00,0.0,WeatherDisplay:10.37,2013-01-18 08:38:00,
2013-01-18 00:43:00,39.4,23.7,30.18,SE,138,0.0,0.0,53,0.00,CLR,,0.00,0.0,WeatherDisplay:10.37,2013-01-18 08:43:00,
2013-01-18 00:48:00,39.4,23.2,30.18,SE,138,0.0,0.0,52,0.00,CLR,,0.00,0.0,WeatherDisplay:10.37,2013-01-18 08:48:00,
2013-01-18 00:53:00,39.3,23.1,30.18,SE,138,0.0,0.0,52,0.00,CLR,,0.00,0.0,WeatherDisplay:10.37,2013-01-18 08:53:00,
2013-01-18 00:58:00,39.2,23.9,30.18,SE,138,0.0,0.0,54,0.00,CLR,,0.00,0.0,WeatherDisplay:10.37,2013-01-18 08:58:00,
2013-01-18 01:03:00,39.1,23.4,30.18,SE,138,0.0,0.0,53,0.00,CLR,,0.00,0.0,WeatherDisplay:10.37,2013-01-18 09:03:00,
2013-01-18 01:08:00,38.9,24.5,30.18,SE,138,0.0,0.0,56,0.00,CLR,,0.00,0.0,WeatherDisplay:10.37,2013-01-18 09:08:00,
2013-01-18 01:13:00,38.8,23.1,30.18,SE,142,0.0,0.0,53,0.00,CLR,,0.00,0.0,WeatherDisplay:10.37,2013-01-18 09:13:00,
2013-01-18 01:18:00,39.2,22.6,30.17,SE,143,0.0,0.0,51,0.00,CLR,,0.00,0.0,WeatherDisplay:10.37,2013-01-18 09:18:00,
2013-01-18 01:23:00,39.3,22.7,30.17,SE,143,0.0,0.0,51,0.00,CLR,,0.00,0.0,WeatherDisplay:10.37,2013-01-18 09:23:00,
2013-01-18 01:28:00,39.3,22.7,30.17,SE,143,0.0,0.0,51,0.00,CLR,,0.00,0.0,WeatherDisplay:10.37,2013-01-18 09:28:00,
2013-01-18 01:33:00,39.2,23.0,30.17,SE,143,0.0,0.0,52,0.00,CLR,,0.00,0.0,WeatherDisplay:10.37,2013-01-18 09:33:00,
2013-01-18 01:38:00,39.1,22.9,30.17,SE,143,0.0,0.0,52,0.00,CLR,,0.00,0.0,WeatherDisplay:10.37,2013-01-18 09:38:00,
2013-01-18 01:43:00,39.0,23.3,30.17,SE,143,0.0,0.0,53,0.00,CLR,,0.00,0.0,WeatherDisplay:10.37,2013-01-18 09:43:00,
2013-01-18 01:48:00,38.8,23.1,30.17,East,87,0.0,0.0,53,0.00,CLR,,0.00,0.0,WeatherDisplay:10.37,2013-01-18 09:48:00,
2013-01-18 01:53:00,38.6,22.5,30.17,East,87,0.0,0.0,52,0.00,CLR,,0.00,0.0,WeatherDisplay:10.37,2013-01-18 09:53:00,
2013-01-18 01:58:00,38.2,23.4,30.17,East,87,0.0,0.0,55,0.00,CLR,,0.00,0.0,WeatherDisplay:10.37,2013-01-18 09:58:00,
2013-01-18 02:03:00,37.9,23.2,30.16,NE,43,0.0,0.0,55,0.00,CLR,,0.00,0.0,WeatherDisplay:10.37,2013-01-18 10:03:00,
2013-01-18 02:08:00,37.7,23.0,30.16,NE,37,0.0,0.0,55,0.00,CLR,,0.00,0.0,WeatherDisplay:10.37,2013-01-18 10:08:00,
2013-01-18 02:13:00,37.2,22.9,30.16,NE,37,0.0,0.0,56,0.00,CLR,,0.00,0.0,WeatherDisplay:10.37,2013-01-18 10:13:00,
2013-01-18 02:18:00,37.1,22.4,30.16,NNE,32,0.0,0.0,55,0.00,CLR,,0.00,0.0,WeatherDisplay:10.37,2013-01-18 10:18:00,
2013-01-18 02:23:00,37.7,23.0,30.16,WNW,284,0.0,1.1,55,0.00,CLR,,0.00,0.0,WeatherDisplay:10.37,2013-01-18 10:23:00,
2013-01-18 02:28:00,37.7,22.5,30.16,WNW,283,0.1,1.1,54,0.00,CLR,,0.00,0.0,WeatherDisplay:10.37,2013-01-18 10:28:00,
2013-01-18 02:33:00,38.0,21.9,30.16,West,266,0.4,2.0,52,0.00,CLR,,0.00,0.0,WeatherDisplay:10.37,2013-01-18 10:33:00,
2013-01-18 02:38:00,38.6,22.9,30.16,NNE,13,0.0,1.1,53,0.00,CLR,,0.00,0.0,WeatherDisplay:10.37,2013-01-18 10:38:00,
2013-01-18 02:43:00,38.6,22.9,30.16,NNE,13,0.0,0.0,53,0.00,CLR,,0.00,0.0,WeatherDisplay:10.37,2013-01-18 10:43:00,
2013-01-18 02:48:00,38.4,22.7,30.15,NNE,13,0.0,0.0,53,0.00,CLR,,0.00,0.0,WeatherDisplay:10.37,2013-01-18 10:48:00,
2013-01-18 02:53:00,38.4,22.7,30.15,NNE,13,0.1,1.1,53,0.00,CLR,,0.00,0.0,WeatherDisplay:10.37,2013-01-18 10:53:00,
2013-01-18 02:58:00,38.5,21.9,30.15,NNE,13,0.0,0.0,51,0.00,CLR,,0.00,0.0,WeatherDisplay:10.37,2013-01-18 10:58:00,
2013-01-18 03:03:00,38.4,22.7,30.15,NNE,13,0.0,0.0,53,0.00,CLR,,0.00,0.0,WeatherDisplay:10.37,2013-01-18 11:03:00,
2013-01-18 03:08:00,38.1,22.5,30.15,NNE,13,0.0,0.0,53,0.00,CLR,,0.00,0.0,WeatherDisplay:10.37,2013-01-18 11:08:00,
2013-01-18 03:13:00,37.7,22.1,30.15,NNE,13,0.0,0.0,53,0.00,CLR,,0.00,0.0,WeatherDisplay:10.37,2013-01-18 11:13:00,
2013-01-18 03:18:00,37.3,22.6,30.15,NNE,13,0.0,0.0,55,0.00,CLR,,0.00,0.0,WeatherDisplay:10.37,2013-01-18 11:18:00,
2013-01-18 03:23:00,37.0,22.7,30.15,NNE,13,0.0,0.0,56,0.00,CLR,,0.00,0.0,WeatherDisplay:10.37,2013-01-18 11:23:00,
2013-01-18 03:28:00,36.6,24.0,30.15,NNE,13,0.0,0.0,60,0.00,CLR,,0.00,0.0,WeatherDisplay:10.37,2013-01-18 11:28:00,
2013-01-18 03:33:00,36.1,22.7,30.15,NNE,13,0.0,0.0,58,0.00,CLR,,0.00,0.0,WeatherDisplay:10.37,2013-01-18 11:33:00,
2013-01-18 03:38:00,35.6,22.7,30.15,NNE,13,0.0,0.0,59,0.00,CLR,,0.00,0.0,WeatherDisplay:10.37,2013-01-18 11:38:00,
2013-01-18 03:43:00,35.1,23.0,30.15,NNE,13,0.0,0.0,61,0.00,CLR,,0.00,0.0,WeatherDisplay:10.37,2013-01-18 11:43:00,
2013-01-18 03:48:00,34.8,23.1,30.15,NNE,13,0.0,0.0,62,0.00,CLR,,0.00,0.0,WeatherDisplay:10.37,2013-01-18 11:48:00,
2013-01-18 03:53:00,34.6,23.3,30.15,North,355,0.0,0.0,63,0.00,CLR,,0.00,0.0,WeatherDisplay:10.37,2013-01-18 11:53:00,
2013-01-18 03:58:00,34.4,23.1,30.15,North,355,0.0,0.0,63,0.00,CLR,,0.00,0.0,WeatherDisplay:10.37,2013-01-18 11:58:00,
2013-01-18 04:03:00,34.6,23.3,30.15,North,355,0.0,0.0,63,0.00,CLR,,0.00,0.0,WeatherDisplay:10.37,2013-01-18 12:03:00,
2013-01-18 04:08:00,34.5,22.8,30.15,North,355,0.0,0.0,62,0.00,CLR,,0.00,0.0,WeatherDisplay:10.37,2013-01-18 12:08:00,
2013-01-18 04:13:00,34.2,22.9,30.15,North,355,0.0,0.0,63,0.00,CLR,,0.00,0.0,WeatherDisplay:10.37,2013-01-18 12:13:00,
2013-01-18 04:18:00,34.1,23.2,30.14,North,355,0.0,0.0,64,0.00,CLR,,0.00,0.0,WeatherDisplay:10.37,2013-01-18 12:18:00,
2013-01-18 04:24:00,34.1,23.2,30.14,North,355,0.0,0.0,64,0.00,CLR,,0.00,0.0,WeatherDisplay:10.37,2013-01-18 12:24:00,
2013-01-18 04:29:00,34.2,23.3,30.14,North,355,0.0,0.0,64,0.00,CLR,,0.00,0.0,WeatherDisplay:10.37,2013-01-18 12:29:00,
2013-01-18 04:34:00,34.1,23.2,30.14,North,355,0.0,0.0,64,0.00,CLR,,0.00,0.0,WeatherDisplay:10.37,2013-01-18 12:34:00,
2013-01-18 04:39:00,34.1,23.2,30.14,North,355,0.0,0.0,64,0.00,CLR,,0.00,0.0,WeatherDisplay:10.37,2013-01-18 12:39:00,
2013-01-18 04:44:00,34.3,23.0,30.14,North,355,0.0,0.0,63,0.00,CLR,,0.00,0.0,WeatherDisplay:10.37,2013-01-18 12:44:00,
2013-01-18 04:49:00,34.4,23.1,30.14,North,355,0.0,0.0,63,0.00,CLR,,0.00,0.0,WeatherDisplay:10.37,2013-01-18 12:49:00,
2013-01-18 04:54:00,34.6,24.0,30.14,North,355,0.0,0.0,65,0.00,CLR,,0.00,0.0,WeatherDisplay:10.37,2013-01-18 12:54:00,
2013-01-18 04:59:00,34.7,23.0,30.14,North,355,0.0,0.0,62,0.00,CLR,,0.00,0.0,WeatherDisplay:10.37,2013-01-18 12:59:00,
2013-01-18 05:04:00,34.6,23.3,30.14,North,355,0.0,0.0,63,0.00,CLR,,0.00,0.0,WeatherDisplay:10.37,2013-01-18 13:04:00,
2013-01-18 05:09:00,34.8,23.5,30.14,North,355,0.0,0.0,63,0.00,CLR,,0.00,0.0,WeatherDisplay:10.37,2013-01-18 13:09:00,
2013-01-18 05:14:00,34.9,22.8,30.14,North,355,0.0,0.0,61,0.00,CLR,,0.00,0.0,WeatherDisplay:10.37,2013-01-18 13:14:00,
2013-01-18 05:19:00,34.9,22.8,30.14,North,355,0.0,0.0,61,0.00,CLR,,0.00,0.0,WeatherDisplay:10.37,2013-01-18 13:19:00,
2013-01-18 05:24:00,34.8,23.1,30.14,North,355,0.0,0.0,62,0.00,CLR,,0.00,0.0,WeatherDisplay:10.37,2013-01-18 13:24:00,
2013-01-18 05:29:00,34.9,23.2,30.15,North,355,0.0,0.0,62,0.00,CLR,,0.00,0.0,WeatherDisplay:10.37,2013-01-18 13:29:00,
2013-01-18 05:34:00,35.1,23.0,30.14,North,355,0.0,0.0,61,0.00,CLR,,0.00,0.0,WeatherDisplay:10.37,2013-01-18 13:34:00,
2013-01-18 05:39:00,35.3,23.2,30.14,North,355,0.0,0.0,61,0.00,CLR,,0.00,0.0,WeatherDisplay:10.37,2013-01-18 13:39:00,
2013-01-18 05:44:00,35.4,23.3,30.14,North,355,0.0,0.0,61,0.00,CLR,,0.00,0.0,WeatherDisplay:10.37,2013-01-18 13:44:00,
2013-01-18 05:49:00,35.5,23.4,30.14,North,355,0.0,0.0,61,0.00,CLR,,0.00,0.0,WeatherDisplay:10.37,2013-01-18 13:49:00,
2013-01-18 05:54:00,35.4,23.3,30.14,North,355,0.0,0.0,61,0.00,CLR,,0.00,0.0,WeatherDisplay:10.37,2013-01-18 13:54:00,
2013-01-18 05:59:00,35.2,23.1,30.15,North,355,0.0,0.0,61,0.00,CLR,,0.00,0.0,WeatherDisplay:10.37,2013-01-18 13:59:00,
2013-01-18 06:04:00,35.4,23.3,30.15,North,355,0.0,0.0,61,0.00,CLR,,0.00,0.0,WeatherDisplay:10.37,2013-01-18 14:04:00,
2013-01-18 06:09:00,35.3,23.2,30.15,North,355,0.0,0.0,61,0.00,CLR,,0.00,0.0,WeatherDisplay:10.37,2013-01-18 14:09:00,
2013-01-18 06:14:00,35.2,23.5,30.15,North,355,0.0,0.0,62,0.00,CLR,,0.00,0.0,WeatherDisplay:10.37,2013-01-18 14:14:00,
2013-01-18 06:19:00,35.1,23.4,30.15,North,355,0.0,0.0,62,0.00,CLR,,0.00,0.0,WeatherDisplay:10.37,2013-01-18 14:19:00,
2013-01-18 06:24:00,34.9,23.9,30.15,North,355,0.0,0.0,64,0.00,CLR,,0.00,0.0,WeatherDisplay:10.37,2013-01-18 14:24:00,
2013-01-18 06:29:00,34.7,23.8,30.15,North,355,0.0,0.0,64,0.00,CLR,,0.00,0.0,WeatherDisplay:10.37,2013-01-18 14:29:00,
2013-01-18 06:34:00,34.7,23.8,30.15,North,355,0.0,0.0,64,0.00,CLR,,0.00,0.0,WeatherDisplay:10.37,2013-01-18 14:34:00,
2013-01-18 06:39:00,34.6,23.7,30.15,North,355,0.0,0.0,64,0.00,CLR,,0.00,0.0,WeatherDisplay:10.37,2013-01-18 14:39:00,
2013-01-18 06:44:00,34.9,23.6,30.15,North,355,0.0,0.0,63,0.00,CLR,,0.00,0.0,WeatherDisplay:10.37,2013-01-18 14:44:00,
2013-01-18 06:49:00,35.1,24.1,30.15,North,355,0.0,0.0,64,0.00,CLR,,0.00,0.0,WeatherDisplay:10.37,2013-01-18 14:49:00,
2013-01-18 06:54:00,35.0,24.0,30.15,North,355,0.0,0.0,64,0.00,CLR,,0.00,5.0,WeatherDisplay:10.37,2013-01-18 14:54:00,
2013-01-18 06:59:00,34.9,23.6,30.15,North,355,0.0,0.0,63,0.00,CLR,,0.00,11.0,WeatherDisplay:10.37,2013-01-18 14:59:00,
2013-01-18 07:04:00,35.1,23.0,30.15,North,355,0.0,0.0,61,0.00,CLR,,0.00,12.0,WeatherDisplay:10.37,2013-01-18 15:04:00,
2013-01-18 07:09:00,35.6,23.5,30.15,North,355,0.0,0.0,61,0.00,CLR,,0.00,21.0,WeatherDisplay:10.37,2013-01-18 15:09:00,
2013-01-18 07:14:00,36.2,24.8,30.16,North,355,0.0,0.0,63,0.00,CLR,,0.00,26.0,WeatherDisplay:10.37,2013-01-18 15:14:00,
2013-01-18 07:19:00,37.1,25.3,30.16,North,355,0.0,0.0,62,0.00,CLR,,0.00,37.0,WeatherDisplay:10.37,2013-01-18 15:19:00,
2013-01-18 07:24:00,37.9,26.0,30.16,North,355,0.0,0.0,62,0.00,CLR,,0.00,44.0,WeatherDisplay:10.37,2013-01-18 15:24:00,
2013-01-18 07:29:00,38.4,24.9,30.16,North,355,0.0,0.0,58,0.00,CLR,,0.00,67.0,WeatherDisplay:10.37,2013-01-18 15:29:00,
2013-01-18 07:34:00,39.3,25.7,30.16,North,355,0.0,0.0,58,0.00,CLR,,0.00,81.0,WeatherDisplay:10.37,2013-01-18 15:34:00,
2013-01-18 07:39:00,40.8,27.2,30.17,NE,34,0.0,1.1,58,0.00,CLR,,0.00,98.0,WeatherDisplay:10.37,2013-01-18 15:39:00,
2013-01-18 07:44:00,42.2,26.7,30.17,NE,34,0.0,0.0,54,0.00,CLR,,0.00,114.0,WeatherDisplay:10.37,2013-01-18 15:44:00,
2013-01-18 07:49:00,43.3,26.4,30.17,NE,34,0.0,0.0,51,0.00,CLR,,0.00,135.0,WeatherDisplay:10.37,2013-01-18 15:49:00,
2013-01-18 07:54:00,44.2,27.7,30.17,NE,34,0.0,0.0,52,0.00,CLR,,0.00,155.0,WeatherDisplay:10.37,2013-01-18 15:54:00,
2013-01-18 07:59:00,45.5,26.4,30.17,NE,34,0.0,0.0,47,0.00,CLR,,0.00,176.0,WeatherDisplay:10.37,2013-01-18 15:59:00,
2013-01-18 08:04:00,46.1,29.0,30.17,NE,34,0.0,0.0,51,0.00,OVC,,0.00,199.0,WeatherDisplay:10.37,2013-01-18 16:04:00,
2013-01-18 08:09:00,47.4,29.7,30.17,NE,34,0.0,0.0,50,0.00,OVC,,0.00,220.0,WeatherDisplay:10.37,2013-01-18 16:09:00,
2013-01-18 08:14:00,48.3,29.0,30.17,NE,34,0.0,0.0,47,0.00,OVC,,0.00,241.0,WeatherDisplay:10.37,2013-01-18 16:14:00,
2013-01-18 08:19:00,49.2,28.7,30.17,NE,34,0.0,0.0,45,0.00,OVC,,0.00,262.0,WeatherDisplay:10.37,2013-01-18 16:19:00,
2013-01-18 08:24:00,50.4,28.7,30.17,NE,34,0.0,0.0,43,0.00,OVC,,0.00,279.0,WeatherDisplay:10.37,2013-01-18 16:24:00,
2013-01-18 08:29:00,51.1,28.2,30.17,NE,34,0.0,0.0,41,0.00,OVC,,0.00,297.0,WeatherDisplay:10.37,2013-01-18 16:29:00,
2013-01-18 08:34:00,51.2,31.1,30.17,NNE,23,0.0,0.0,46,0.00,OVC,,0.00,315.0,WeatherDisplay:10.37,2013-01-18 16:34:00,
2013-01-18 08:39:00,52.4,31.1,30.17,NNE,23,0.0,0.0,44,0.00,OVC,,0.00,330.0,WeatherDisplay:10.37,2013-01-18 16:39:00,
2013-01-18 08:44:00,53.7,31.7,30.17,NNE,23,0.0,0.0,43,0.00,OVC,,0.00,348.0,WeatherDisplay:10.37,2013-01-18 16:44:00,
2013-01-18 08:49:00,54.9,32.2,30.17,NNE,23,0.0,0.0,42,0.00,OVC,,0.00,362.0,WeatherDisplay:10.37,2013-01-18 16:49:00,
2013-01-18 08:54:00,56.0,33.8,30.17,NNE,23,0.3,1.1,43,0.00,OVC,,0.00,378.0,WeatherDisplay:10.37,2013-01-18 16:54:00,
2013-01-18 08:59:00,57.1,33.6,30.17,NNE,23,0.1,1.1,41,0.00,OVC,,0.00,394.0,WeatherDisplay:10.37,2013-01-18 16:59:00,
2013-01-18 09:04:00,58.0,35.6,30.17,NNE,23,0.2,1.1,43,0.00,OVC,,0.00,408.0,WeatherDisplay:10.37,2013-01-18 17:04:00,
2013-01-18 09:09:00,59.0,34.1,30.17,NNE,23,0.0,0.0,39,0.00,OVC,,0.00,422.0,WeatherDisplay:10.37,2013-01-18 17:09:00,
2013-01-18 09:15:00,59.6,31.9,30.17,ENE,57,0.7,1.1,35,0.00,OVC,,0.00,438.0,WeatherDisplay:10.37,2013-01-18 17:15:00,
2013-01-18 09:20:00,60.2,33.1,30.17,ENE,57,0.0,0.0,36,0.00,OVC,,0.00,452.0,WeatherDisplay:10.37,2013-01-18 17:20:00,
2013-01-18 09:25:00,61.0,31.7,30.17,ENE,57,0.5,1.1,33,0.00,OVC,,0.00,464.0,WeatherDisplay:10.37,2013-01-18 17:25:00,
2013-01-18 09:30:00,61.6,33.7,30.17,ENE,57,0.0,1.1,35,0.00,OVC,,0.00,476.0,WeatherDisplay:10.37,2013-01-18 17:30:00,
2013-01-18 09:35:00,62.4,34.4,30.17,South,182,0.0,0.0,35,0.00,OVC,,0.00,475.0,WeatherDisplay:10.37,2013-01-18 17:35:00,
2013-01-18 09:40:00,63.3,33.7,30.17,East,82,0.0,1.1,33,0.00,OVC,,0.00,501.0,WeatherDisplay:10.37,2013-01-18 17:40:00,
2013-01-18 09:45:00,64.1,32.8,30.17,WNW,292,1.4,1.4,31,0.00,OVC,,0.00,515.0,WeatherDisplay:10.37,2013-01-18 17:45:00,
2013-01-18 09:50:00,64.0,30.2,30.17,WSW,250,1.5,3.5,28,0.00,OVC,,0.00,527.0,WeatherDisplay:10.37,2013-01-18 17:50:00,
2013-01-18 09:55:00,63.8,29.1,30.16,SW,218,1.6,3.5,27,0.00,OVC,,0.00,534.0,WeatherDisplay:10.37,2013-01-18 17:55:00,
2013-01-18 10:00:00,63.9,31.0,30.16,SW,218,2.7,3.5,29,0.00,OVC,,0.00,552.0,WeatherDisplay:10.37,2013-01-18 18:00:00,
2013-01-18 10:05:00,64.0,29.3,30.16,West,265,2.8,4.6,27,0.00,OVC,,0.00,564.0,WeatherDisplay:10.37,2013-01-18 18:05:00,
2013-01-18 10:10:00,64.2,27.6,30.16,SW,225,2.5,3.5,25,0.00,OVC,,0.00,575.0,WeatherDisplay:10.37,2013-01-18 18:10:00,
2013-01-18 10:15:00,64.5,27.9,30.16,SW,231,2.6,3.5,25,0.00,OVC,,0.00,585.0,WeatherDisplay:10.37,2013-01-18 18:15:00,
2013-01-18 10:20:00,64.9,29.2,30.16,SSW,212,3.0,4.6,26,0.00,OVC,,0.00,594.0,WeatherDisplay:10.37,2013-01-18 18:20:00,
2013-01-18 10:25:00,65.3,29.5,30.15,West,280,3.1,4.0,26,0.00,OVC,,0.00,605.0,WeatherDisplay:10.37,2013-01-18 18:25:00,
2013-01-18 10:30:00,65.7,27.9,30.15,SW,224,3.4,4.6,24,0.00,OVC,,0.00,612.0,WeatherDisplay:10.37,2013-01-18 18:30:00,
2013-01-18 10:35:00,66.1,28.2,30.15,WSW,242,2.0,6.0,24,0.00,OVC,,0.00,622.0,WeatherDisplay:10.37,2013-01-18 18:35:00,
2013-01-18 10:40:00,66.7,27.7,30.15,West,279,2.6,4.6,23,0.00,OVC,,0.00,626.0,WeatherDisplay:10.37,2013-01-18 18:40:00,
2013-01-18 10:45:00,67.1,25.8,30.15,WSW,252,2.0,5.0,21,0.00,OVC,,0.00,636.0,WeatherDisplay:10.37,2013-01-18 18:45:00,
2013-01-18 10:50:00,67.6,30.5,30.14,West,260,0.4,3.5,25,0.00,OVC,,0.00,643.0,WeatherDisplay:10.37,2013-01-18 18:50:00,
2013-01-18 10:55:00,68.2,27.9,30.14,WSW,245,3.0,6.0,22,0.00,OVC,,0.00,647.0,WeatherDisplay:10.37,2013-01-18 18:55:00,
2013-01-18 11:00:00,68.6,29.3,30.14,WSW,238,3.0,6.0,23,0.00,OVC,,0.00,652.0,WeatherDisplay:10.37,2013-01-18 19:00:00,
2013-01-18 11:05:00,69.1,26.3,30.13,WSW,247,3.1,4.6,20,0.00,OVC,,0.00,656.0,WeatherDisplay:10.37,2013-01-18 19:05:00,
2013-01-18 11:10:00,69.4,30.0,30.13,SW,219,2.9,5.8,23,0.00,OVC,,0.00,659.0,WeatherDisplay:10.37,2013-01-18 19:10:00,
2013-01-18 11:15:00,69.7,26.8,30.13,SW,233,2.0,7.0,20,0.00,OVC,,0.00,663.0,WeatherDisplay:10.37,2013-01-18 19:15:00,
2013-01-18 11:20:00,69.9,28.2,30.13,NW,324,3.0,5.8,21,0.00,OVC,,0.00,670.0,WeatherDisplay:10.37,2013-01-18 19:20:00,
2013-01-18 11:25:00,69.9,27.0,30.12,West,264,1.0,5.0,20,0.00,OVC,,0.00,673.0,WeatherDisplay:10.37,2013-01-18 19:25:00,
2013-01-18 11:30:00,70.6,26.3,30.12,NW,306,2.6,3.5,19,0.00,OVC,,0.00,677.0,WeatherDisplay:10.37,2013-01-18 19:30:00,
2013-01-18 11:35:00,71.0,31.3,30.12,SW,236,3.0,7.0,23,0.00,OVC,,0.00,679.0,WeatherDisplay:10.37,2013-01-18 19:35:00,
2013-01-18 11:40:00,71.4,29.4,30.11,SW,221,3.9,5.8,21,0.00,OVC,,0.00,652.0,WeatherDisplay:10.37,2013-01-18 19:40:00,
2013-01-18 11:45:00,71.7,30.8,30.11,SW,234,3.4,6.9,22,0.00,OVC,,0.00,608.0,WeatherDisplay:10.37,2013-01-18 19:45:00,
2013-01-18 11:50:00,72.2,28.9,30.11,SSW,205,5.4,6.9,20,0.00,OVC,,0.00,684.0,WeatherDisplay:10.37,2013-01-18 19:50:00,
2013-01-18 11:55:00,72.4,27.8,30.10,West,267,3.0,4.0,19,0.00,OVC,,0.00,666.0,WeatherDisplay:10.37,2013-01-18 19:55:00,
2013-01-18 12:00:00,72.4,27.7,30.10,WSW,242,5.0,8.0,19,0.00,OVC,,0.00,649.0,WeatherDisplay:10.37,2013-01-18 20:00:00,
2013-01-18 12:05:00,72.6,23.8,30.10,WSW,253,2.0,5.0,16,0.00,OVC,,0.00,615.0,WeatherDisplay:10.37,2013-01-18 20:05:00,
2013-01-18 12:10:00,72.6,26.6,30.09,SSW,207,1.4,4.6,18,0.00,OVC,,0.00,566.0,WeatherDisplay:10.37,2013-01-18 20:10:00,
2013-01-18 12:15:00,73.0,28.3,30.09,SSW,206,1.1,3.0,19,0.00,OVC,,0.00,666.0,WeatherDisplay:10.37,2013-01-18 20:15:00,
2013-01-18 12:20:00,73.3,25.8,30.09,WSW,255,1.5,3.5,17,0.00,OVC,,0.00,671.0,WeatherDisplay:10.37,2013-01-18 20:20:00,
2013-01-18 12:25:00,73.8,28.9,30.09,WNW,291,2.3,2.3,19,0.00,OVC,,0.00,666.0,WeatherDisplay:10.37,2013-01-18 20:25:00,
2013-01-18 12:30:00,74.2,26.5,30.09,West,268,3.2,5.8,17,0.00,OVC,,0.00,657.0,WeatherDisplay:10.37,2013-01-18 20:30:00,
2013-01-18 12:35:00,74.6,28.3,30.09,WSW,256,3.2,5.8,18,0.00,OVC,,0.00,656.0,WeatherDisplay:10.37,2013-01-18 20:35:00,
2013-01-18 12:40:00,74.9,27.1,30.08,SSW,197,2.4,3.5,17,0.00,OVC,,0.00,650.0,WeatherDisplay:10.37,2013-01-18 20:40:00,
2013-01-18 12:45:00,74.9,22.5,30.08,WSW,242,2.0,4.0,14,0.00,OVC,,0.00,647.0,WeatherDisplay:10.37,2013-01-18 20:45:00,
2013-01-18 12:50:00,75.1,25.8,30.08,West,281,2.1,3.5,16,0.00,OVC,,0.00,645.0,WeatherDisplay:10.37,2013-01-18 20:50:00,
2013-01-18 12:55:00,75.4,27.5,30.08,WSW,244,1.0,6.0,17,0.00,OVC,,0.00,640.0,WeatherDisplay:10.37,2013-01-18 20:55:00,
2013-01-18 13:00:00,76.0,26.5,30.08,WSW,243,2.0,6.0,16,0.00,OVC,,0.00,636.0,WeatherDisplay:10.37,2013-01-18 21:00:00,
2013-01-18 13:05:00,76.5,23.7,30.08,SW,234,0.0,6.0,14,0.00,OVC,,0.00,629.0,WeatherDisplay:10.37,2013-01-18 21:05:00,
2013-01-18 13:10:00,76.7,27.1,30.07,WSW,254,0.3,3.5,16,0.00,OVC,,0.00,626.0,WeatherDisplay:10.37,2013-01-18 21:10:00,
2013-01-18 13:15:00,76.7,27.1,30.07,South,185,0.8,3.5,16,0.00,OVC,,0.00,619.0,WeatherDisplay:10.37,2013-01-18 21:15:00,
2013-01-18 13:20:00,77.1,27.4,30.07,WSW,238,0.9,2.3,16,0.00,OVC,,0.00,612.0,WeatherDisplay:10.37,2013-01-18 21:20:00,
2013-01-18 13:25:00,77.5,26.2,30.07,SW,230,2.4,3.5,15,0.00,OVC,,0.00,605.0,WeatherDisplay:10.37,2013-01-18 21:25:00,
2013-01-18 13:30:00,77.5,26.2,30.07,WSW,252,0.3,3.5,15,0.00,OVC,,0.00,592.0,WeatherDisplay:10.37,2013-01-18 21:30:00,
2013-01-18 13:35:00,77.6,27.8,30.07,SW,224,2.0,5.0,16,0.00,OVC,,0.00,582.0,WeatherDisplay:10.37,2013-01-18 21:35:00,
2013-01-18 13:40:00,77.7,30.8,30.07,West,261,0.3,2.3,18,0.00,OVC,,0.00,577.0,WeatherDisplay:10.37,2013-01-18 21:40:00,
2013-01-18 13:45:00,78.2,28.3,30.07,WSW,242,3.0,6.0,16,0.00,OVC,,0.00,568.0,WeatherDisplay:10.37,2013-01-18 21:45:00,
2013-01-18 13:50:00,78.3,23.4,30.07,WSW,254,2.1,6.9,13,0.00,OVC,,0.00,557.0,WeatherDisplay:10.37,2013-01-18 21:50:00,
2013-01-18 13:55:00,77.4,29.1,30.07,SSW,199,0.7,3.5,17,0.00,OVC,,0.00,547.0,WeatherDisplay:10.37,2013-01-18 21:55:00,
2013-01-18 14:00:00,78.0,24.9,30.07,WSW,237,0.0,4.0,14,0.00,OVC,,0.00,533.0,WeatherDisplay:10.37,2013-01-18 22:00:00,
2013-01-18 14:05:00,77.7,22.9,30.07,WSW,257,1.0,3.0,13,0.00,OVC,,0.00,524.0,WeatherDisplay:10.37,2013-01-18 22:05:00,
2013-01-18 14:10:00,77.3,24.4,30.07,SE,135,0.4,1.1,14,0.00,OVC,,0.00,515.0,WeatherDisplay:10.37,2013-01-18 22:10:00,
2013-01-18 14:15:00,76.7,27.1,30.07,SSW,195,0.0,1.0,16,0.00,OVC,,0.00,499.0,WeatherDisplay:10.37,2013-01-18 22:15:00,
2013-01-18 14:20:00,76.2,21.7,30.07,West,273,1.6,2.3,13,0.00,OVC,,0.00,490.0,WeatherDisplay:10.37,2013-01-18 22:20:00,
2013-01-18 14:25:00,75.9,24.9,30.07,WNW,288,1.5,3.0,15,0.00,OVC,,0.00,478.0,WeatherDisplay:10.37,2013-01-18 22:25:00,
2013-01-18 14:30:00,76.3,21.8,30.07,WNW,298,2.9,4.6,13,0.00,OVC,,0.00,468.0,WeatherDisplay:10.37,2013-01-18 22:30:00,
2013-01-18 14:35:00,75.8,23.2,30.07,NE,46,1.1,3.5,14,0.00,OVC,,0.00,420.0,WeatherDisplay:10.37,2013-01-18 22:35:00,
2013-01-18 14:40:00,75.6,26.2,30.07,SW,218,1.8,3.5,16,0.00,OVC,,0.00,441.0,WeatherDisplay:10.37,2013-01-18 22:40:00,
2013-01-18 14:45:00,76.6,27.0,30.07,SW,223,2.0,7.0,16,0.00,OVC,,0.00,424.0,WeatherDisplay:10.37,2013-01-18 22:45:00,
2013-01-18 14:50:00,77.6,26.3,30.07,West,263,2.2,3.5,15,0.00,OVC,,0.00,410.0,WeatherDisplay:10.37,2013-01-18 22:50:00,
2013-01-18 14:55:00,78.0,24.9,30.07,SW,232,2.0,5.0,14,0.00,OVC,,0.00,397.0,WeatherDisplay:10.37,2013-01-18 22:55:00,
2013-01-18 15:00:00,78.0,23.1,30.07,SW,226,0.6,1.1,13,0.00,OVC,,0.00,380.0,WeatherDisplay:10.37,2013-01-18 23:00:00,
2013-01-18 15:05:00,77.5,24.5,30.07,North,5,0.6,3.5,14,0.00,OVC,,0.00,371.0,WeatherDisplay:10.37,2013-01-18 23:05:00,
2013-01-18 15:10:00,76.6,23.8,30.07,NNE,28,1.8,2.3,14,0.00,OVC,,0.00,352.0,WeatherDisplay:10.37,2013-01-18 23:10:00,
2013-01-18 15:15:00,75.6,27.7,30.07,NE,41,3.0,5.0,17,0.00,OVC,,0.00,339.0,WeatherDisplay:10.37,2013-01-18 23:15:00,
2013-01-18 15:20:00,74.2,25.1,30.07,NE,51,4.2,4.6,16,0.00,OVC,,0.00,318.0,WeatherDisplay:10.37,2013-01-18 23:20:00,
2013-01-18 15:25:00,73.3,25.8,30.07,NE,48,3.4,4.6,17,0.00,OVC,,0.00,304.0,WeatherDisplay:10.37,2013-01-18 23:25:00,
2013-01-18 15:30:00,72.9,25.5,30.07,NE,43,3.2,6.0,17,0.00,OVC,,0.00,287.0,WeatherDisplay:10.37,2013-01-18 23:30:00,
2013-01-18 15:35:00,72.5,23.7,30.07,NE,35,3.0,6.0,16,0.00,OVC,,0.00,265.0,WeatherDisplay:10.37,2013-01-18 23:35:00,
2013-01-18 15:40:00,72.1,24.9,30.07,NE,36,2.0,7.0,17,0.00,OVC,,0.00,246.0,WeatherDisplay:10.37,2013-01-18 23:40:00,
2013-01-18 15:45:00,71.8,24.6,30.07,NNE,20,3.9,5.8,17,0.00,OVC,,0.00,225.0,WeatherDisplay:10.37,2013-01-18 23:45:00,
2013-01-18 15:50:00,71.4,24.2,30.07,NNE,33,3.0,7.0,17,0.00,OVC,,0.00,206.0,WeatherDisplay:10.37,2013-01-18 23:50:00,
2013-01-18 15:55:00,71.0,22.5,30.07,NE,40,5.3,8.1,16,0.00,OVC,,0.00,185.0,WeatherDisplay:10.37,2013-01-18 23:55:00,
2013-01-18 16:00:00,70.7,23.7,30.07,North,360,2.4,6.0,17,0.00,CLR,,0.00,162.0,WeatherDisplay:10.37,2013-01-19 00:00:00,
2013-01-18 16:05:00,70.3,21.9,30.07,ENE,65,5.0,10.4,16,0.00,CLR,,0.00,142.0,WeatherDisplay:10.37,2013-01-19 00:05:00,
2013-01-18 16:10:00,69.9,23.1,30.07,NE,39,3.0,8.0,17,0.00,CLR,,0.00,72.0,WeatherDisplay:10.37,2013-01-19 00:10:00,
2013-01-18 16:15:00,69.4,21.2,30.07,NE,54,3.0,4.6,16,0.00,CLR,,0.00,76.0,WeatherDisplay:10.37,2013-01-19 00:15:00,
2013-01-18 16:20:00,69.0,22.3,30.07,NNE,15,2.7,3.5,17,0.00,CLR,,0.00,32.0,WeatherDisplay:10.37,2013-01-19 00:20:00,
2013-01-18 16:25:00,68.5,21.9,30.07,NNW,345,1.7,3.5,17,0.00,CLR,,0.00,28.0,WeatherDisplay:10.37,2013-01-19 00:25:00,
2013-01-18 16:30:00,68.1,21.6,30.07,NNE,32,1.0,5.0,17,0.00,CLR,,0.00,25.0,WeatherDisplay:10.37,2013-01-19 00:30:00,
2013-01-18 16:35:00,67.7,22.6,30.07,NE,40,2.7,3.5,18,0.00,CLR,,0.00,23.0,WeatherDisplay:10.37,2013-01-19 00:35:00,
2013-01-18 16:40:00,67.3,22.3,30.08,NNE,19,2.0,4.0,18,0.00,CLR,,0.00,19.0,WeatherDisplay:10.37,2013-01-19 00:40:00,
2013-01-18 16:45:00,66.8,20.5,30.08,NNE,30,1.2,3.5,17,0.00,CLR,,0.00,14.0,WeatherDisplay:10.37,2013-01-19 00:45:00,
2013-01-18 16:50:00,66.4,21.6,30.08,NE,42,2.4,4.6,18,0.00,CLR,,0.00,12.0,WeatherDisplay:10.37,2013-01-19 00:50:00,
2013-01-18 16:55:00,65.9,19.8,30.08,NE,44,2.8,4.6,17,0.00,CLR,,0.00,9.0,WeatherDisplay:10.37,2013-01-19 00:55:00,
2013-01-18 17:00:00,65.5,20.8,30.08,NNE,26,1.6,3.5,18,0.00,CLR,,0.00,7.0,WeatherDisplay:10.37,2013-01-19 01:00:00,
2013-01-18 17:05:00,65.0,20.4,30.08,NNE,22,2.8,3.5,18,0.00,CLR,,0.00,0.0,WeatherDisplay:10.37,2013-01-19 01:05:00,
2013-01-18 17:10:00,64.6,20.1,30.08,NE,40,1.6,3.5,18,0.00,CLR,,0.00,0.0,WeatherDisplay:10.37,2013-01-19 01:10:00,
2013-01-18 17:15:00,64.3,18.5,30.08,NNE,15,1.5,3.5,17,0.00,CLR,,0.00,0.0,WeatherDisplay:10.37,2013-01-19 01:15:00,
2013-01-18 17:20:00,64.0,20.9,30.08,NE,34,1.6,3.5,19,0.00,CLR,,0.00,0.0,WeatherDisplay:10.37,2013-01-19 01:20:00,
2013-01-18 17:25:00,63.6,19.3,30.09,NE,34,1.3,3.5,18,0.00,CLR,,0.00,0.0,WeatherDisplay:10.37,2013-01-19 01:25:00,
2013-01-18 17:30:00,63.2,20.2,30.09,NE,36,1.9,3.5,19,0.00,CLR,,0.00,0.0,WeatherDisplay:10.37,2013-01-19 01:30:00,
2013-01-18 17:35:00,62.9,18.7,30.09,NE,42,1.7,3.5,18,0.00,CLR,,0.00,0.0,WeatherDisplay:10.37,2013-01-19 01:35:00,
2013-01-18 17:40:00,62.7,19.8,30.09,NNE,29,2.3,3.5,19,0.00,CLR,,0.00,0.0,WeatherDisplay:10.37,2013-01-19 01:40:00,
2013-01-18 17:45:00,62.4,18.3,30.09,NNE,27,1.8,3.5,18,0.00,CLR,,0.00,0.0,WeatherDisplay:10.37,2013-01-19 01:45:00,
2013-01-18 17:50:00,62.2,18.1,30.10,NE,52,0.0,1.1,18,0.00,CLR,,0.00,0.0,WeatherDisplay:10.37,2013-01-19 01:50:00,
2013-01-18 17:55:00,61.9,17.9,30.10,NNE,26,0.5,2.3,18,0.00,CLR,,0.00,0.0,WeatherDisplay:10.37,2013-01-19 01:55:00,
2013-01-18 18:00:00,61.6,17.6,30.10,North,5,0.3,2.3,18,0.00,CLR,,0.00,0.0,WeatherDisplay:10.37,2013-01-19 02:00:00,
2013-01-18 18:05:00,61.4,18.7,30.10,NNE,21,0.1,1.1,19,0.00,CLR,,0.00,0.0,WeatherDisplay:10.37,2013-01-19 02:05:00,
2013-01-18 18:10:00,61.0,18.4,30.10,NNE,18,0.3,2.0,19,0.00,CLR,,0.00,0.0,WeatherDisplay:10.37,2013-01-19 02:10:00,
2013-01-18 18:15:00,60.8,18.2,30.10,NNE,22,0.1,1.1,19,0.00,CLR,,0.00,0.0,WeatherDisplay:10.37,2013-01-19 02:15:00,
2013-01-18 18:20:00,60.6,18.1,30.11,NNE,22,0.0,1.1,19,0.00,CLR,,0.00,0.0,WeatherDisplay:10.37,2013-01-19 02:20:00,
2013-01-18 18:25:00,59.9,18.7,30.11,West,276,0.5,2.0,20,0.00,CLR,,0.00,0.0,WeatherDisplay:10.37,2013-01-19 02:25:00,
2013-01-18 18:30:00,59.6,18.4,30.11,West,275,0.0,1.1,20,0.00,CLR,,0.00,0.0,WeatherDisplay:10.37,2013-01-19 02:30:00,
2013-01-18 18:35:00,59.7,19.6,30.11,West,276,0.0,0.0,21,0.00,CLR,,0.00,0.0,WeatherDisplay:10.37,2013-01-19 02:35:00,
2013-01-18 18:40:00,59.5,21.6,30.11,West,276,0.0,0.0,23,0.00,CLR,,0.00,0.0,WeatherDisplay:10.37,2013-01-19 02:40:00,
2013-01-18 18:45:00,59.0,23.2,30.11,East,84,0.2,2.0,25,0.00,CLR,,0.00,0.0,WeatherDisplay:10.37,2013-01-19 02:45:00,
2013-01-18 18:50:00,58.1,21.4,30.11,ENE,77,0.0,0.0,24,0.00,CLR,,0.00,0.0,WeatherDisplay:10.37,2013-01-19 02:50:00,
2013-01-18 18:55:00,57.5,21.9,30.11,ENE,77,0.0,0.0,25,0.00,CLR,,0.00,0.0,WeatherDisplay:10.37,2013-01-19 02:55:00,
2013-01-18 19:00:00,56.9,21.4,30.12,ENE,77,0.0,0.0,25,0.00,CLR,,0.00,0.0,WeatherDisplay:10.37,2013-01-19 03:00:00,
2013-01-18 19:05:00,56.5,22.0,30.12,ENE,77,0.0,0.0,26,0.00,CLR,,0.00,0.0,WeatherDisplay:10.37,2013-01-19 03:05:00,
2013-01-18 19:10:00,55.9,22.4,30.12,ENE,77,0.0,0.0,27,0.00,CLR,,0.00,0.0,WeatherDisplay:10.37,2013-01-19 03:10:00,
2013-01-18 19:15:00,55.5,23.7,30.12,ENE,77,0.0,0.0,29,0.00,CLR,,0.00,0.0,WeatherDisplay:10.37,2013-01-19 03:15:00,
2013-01-18 19:20:00,55.0,22.4,30.12,ENE,77,0.0,0.0,28,0.00,CLR,,0.00,0.0,WeatherDisplay:10.37,2013-01-19 03:20:00,
2013-01-18 19:25:00,54.5,22.0,30.12,East,79,0.2,1.0,28,0.00,CLR,,0.00,0.0,WeatherDisplay:10.37,2013-01-19 03:25:00,
2013-01-18 19:30:00,54.3,22.7,30.12,NE,41,0.1,1.0,29,0.00,CLR,,0.00,0.0,WeatherDisplay:10.37,2013-01-19 03:30:00,
2013-01-18 19:35:00,53.8,23.8,30.12,NE,41,0.0,0.0,31,0.00,CLR,,0.00,0.0,WeatherDisplay:10.37,2013-01-19 03:35:00,
2013-01-18 19:40:00,53.4,22.7,30.12,NE,36,0.0,0.0,30,0.00,CLR,,0.00,0.0,WeatherDisplay:10.37,2013-01-19 03:40:00,
2013-01-18 19:45:00,53.0,23.9,30.12,NE,36,0.0,0.0,32,0.00,CLR,,0.00,0.0,WeatherDisplay:10.37,2013-01-19 03:45:00,
2013-01-18 19:50:00,52.7,22.1,30.13,NE,36,0.0,0.0,30,0.00,CLR,,0.00,0.0,WeatherDisplay:10.37,2013-01-19 03:50:00,
2013-01-18 19:55:00,52.6,23.5,30.13,NE,36,0.0,0.0,32,0.00,CLR,,0.00,0.0,WeatherDisplay:10.37,2013-01-19 03:55:00,
2013-01-18 20:00:00,52.3,22.5,30.13,NE,36,0.0,0.0,31,0.00,CLR,,0.00,0.0,WeatherDisplay:10.37,2013-01-19 04:00:00,
2013-01-18 20:05:00,52.2,23.2,30.13,NE,36,0.0,0.0,32,0.00,CLR,,0.00,0.0,WeatherDisplay:10.37,2013-01-19 04:05:00,
2013-01-18 20:10:00,52.0,23.8,30.13,NE,36,0.0,0.0,33,0.00,CLR,,0.00,0.0,WeatherDisplay:10.37,2013-01-19 04:10:00,
2013-01-18 20:15:00,51.7,23.5,30.13,NE,36,0.0,0.0,33,0.00,CLR,,0.00,0.0,WeatherDisplay:10.37,2013-01-19 04:15:00,
2013-01-18 20:20:00,51.2,23.8,30.13,East,79,0.1,2.0,34,0.00,CLR,,0.00,0.0,WeatherDisplay:10.37,2013-01-19 04:20:00,
2013-01-18 20:25:00,50.5,22.4,30.14,East,81,0.0,0.0,33,0.00,CLR,,0.00,0.0,WeatherDisplay:10.37,2013-01-19 04:25:00,
2013-01-18 20:30:00,50.0,22.7,30.14,East,81,0.2,0.0,34,0.00,CLR,,0.00,0.0,WeatherDisplay:10.37,2013-01-19 04:30:00,
2013-01-18 20:35:00,49.7,23.1,30.14,East,81,0.0,0.0,35,0.00,CLR,,0.00,0.0,WeatherDisplay:10.37,2013-01-19 04:35:00,
2013-01-18 20:40:00,49.6,24.4,30.14,East,81,0.0,0.0,37,0.00,CLR,,0.00,0.0,WeatherDisplay:10.37,2013-01-19 04:40:00,
2013-01-18 20:45:00,49.3,23.4,30.14,East,81,0.0,0.0,36,0.00,CLR,,0.00,0.0,WeatherDisplay:10.37,2013-01-19 04:45:00,
2013-01-18 20:50:00,49.1,23.3,30.14,East,81,0.0,0.0,36,0.00,CLR,,0.00,0.0,WeatherDisplay:10.37,2013-01-19 04:50:00,
2013-01-18 20:55:00,48.9,23.7,30.14,East,81,0.0,0.0,37,0.00,CLR,,0.00,0.0,WeatherDisplay:10.37,2013-01-19 04:55:00,
2013-01-18 21:01:00,48.7,23.6,30.14,East,81,0.0,0.0,37,0.00,CLR,,0.00,0.0,WeatherDisplay:10.37,2013-01-19 05:01:00,
2013-01-18 21:03:00,48.6,23.5,30.14,East,81,0.0,0.0,37,0.00,CLR,,0.00,0.0,WeatherDisplay:10.37,2013-01-19 05:03:00,
2013-01-18 21:08:00,48.4,23.9,30.14,East,81,0.0,0.0,38,0.00,CLR,,0.00,0.0,WeatherDisplay:10.37,2013-01-19 05:08:00,
2013-01-18 21:13:00,47.8,24.0,30.14,East,80,0.0,0.0,39,0.00,CLR,,0.00,0.0,WeatherDisplay:10.37,2013-01-19 05:13:00,
2013-01-18 21:18:00,47.5,24.3,30.14,East,80,0.0,0.0,40,0.00,CLR,,0.00,0.0,WeatherDisplay:10.37,2013-01-19 05:18:00,
2013-01-18 21:23:00,47.2,24.1,30.14,East,80,0.0,0.0,40,0.00,CLR,,0.00,0.0,WeatherDisplay:10.37,2013-01-19 05:23:00,
2013-01-18 21:28:00,46.7,23.6,30.14,East,80,0.0,0.0,40,0.00,CLR,,0.00,0.0,WeatherDisplay:10.37,2013-01-19 05:28:00,
2013-01-18 21:33:00,46.5,24.6,30.14,East,80,0.0,0.0,42,0.00,CLR,,0.00,0.0,WeatherDisplay:10.37,2013-01-19 05:33:00,
2013-01-18 21:38:00,46.1,23.7,30.15,East,80,0.0,0.0,41,0.00,CLR,,0.00,0.0,WeatherDisplay:10.37,2013-01-19 05:38:00,
2013-01-18 21:43:00,45.8,24.5,30.15,East,80,0.0,0.0,43,0.00,CLR,,0.00,0.0,WeatherDisplay:10.37,2013-01-19 05:43:00,
2013-01-18 21:48:00,45.6,23.8,30.15,East,80,0.0,0.0,42,0.00,CLR,,0.00,0.0,WeatherDisplay:10.37,2013-01-19 05:48:00,
2013-01-18 21:53:00,45.5,23.7,30.15,East,80,0.0,0.0,42,0.00,CLR,,0.00,0.0,WeatherDisplay:10.37,2013-01-19 05:53:00,
2013-01-18 21:58:00,45.5,24.3,30.15,East,80,0.0,0.0,43,0.00,CLR,,0.00,0.0,WeatherDisplay:10.37,2013-01-19 05:58:00,
2013-01-18 22:03:00,45.3,24.6,30.14,East,80,0.0,0.0,44,0.00,CLR,,0.00,0.0,WeatherDisplay:10.37,2013-01-19 06:03:00,
2013-01-18 22:08:00,45.1,24.5,30.14,East,80,0.0,0.0,44,0.00,CLR,,0.00,0.0,WeatherDisplay:10.37,2013-01-19 06:08:00,
2013-01-18 22:13:00,44.9,23.7,30.14,East,80,0.0,0.0,43,0.00,CLR,,0.00,0.0,WeatherDisplay:10.37,2013-01-19 06:13:00,
2013-01-18 22:18:00,44.8,24.2,30.14,East,80,0.0,0.0,44,0.00,CLR,,0.00,0.0,WeatherDisplay:10.37,2013-01-19 06:18:00,
2013-01-18 22:23:00,44.5,24.5,30.14,East,80,0.0,0.0,45,0.00,CLR,,0.00,0.0,WeatherDisplay:10.37,2013-01-19 06:23:00,
2013-01-18 22:28:00,44.3,24.8,30.14,East,80,0.0,0.0,46,0.00,CLR,,0.00,0.0,WeatherDisplay:10.37,2013-01-19 06:28:00,
2013-01-18 22:33:00,44.1,25.1,30.15,East,80,0.0,0.0,47,0.00,CLR,,0.00,0.0,WeatherDisplay:10.37,2013-01-19 06:33:00,
2013-01-18 22:38:00,43.8,24.3,30.15,East,80,0.0,0.0,46,0.00,CLR,,0.00,0.0,WeatherDisplay:10.37,2013-01-19 06:38:00,
2013-01-18 22:43:00,43.8,24.3,30.14,East,80,0.0,0.0,46,0.00,CLR,,0.00,0.0,WeatherDisplay:10.37,2013-01-19 06:43:00,
2013-01-18 22:49:00,43.9,23.9,30.14,East,80,0.0,0.0,45,0.00,CLR,,0.00,0.0,WeatherDisplay:10.37,2013-01-19 06:49:00,
2013-01-18 22:54:00,43.9,24.4,30.14,East,80,0.0,0.0,46,0.00,CLR,,0.00,0.0,WeatherDisplay:10.37,2013-01-19 06:54:00,
2013-01-18 22:59:00,43.7,24.2,30.15,East,86,0.0,0.0,46,0.00,CLR,,0.00,0.0,WeatherDisplay:10.37,2013-01-19 06:59:00,
2013-01-18 23:04:00,43.4,24.5,30.14,East,86,0.0,0.0,47,0.00,CLR,,0.00,0.0,WeatherDisplay:10.37,2013-01-19 07:04:00,
2013-01-18 23:09:00,43.2,25.3,30.14,East,86,0.0,0.0,49,0.00,CLR,,0.00,0.0,WeatherDisplay:10.37,2013-01-19 07:09:00,
2013-01-18 23:14:00,42.9,25.0,30.14,East,86,0.0,0.0,49,0.00,CLR,,0.00,0.0,WeatherDisplay:10.37,2013-01-19 07:14:00,
2013-01-18 23:19:00,42.2,23.4,30.14,East,86,0.0,0.0,47,0.00,CLR,,0.00,0.0,WeatherDisplay:10.37,2013-01-19 07:19:00,
2013-01-18 23:24:00,41.9,24.1,30.14,East,86,0.0,0.0,49,0.00,CLR,,0.00,0.0,WeatherDisplay:10.37,2013-01-19 07:24:00,
2013-01-18 23:29:00,41.6,24.3,30.14,East,86,0.0,0.0,50,0.00,CLR,,0.00,0.0,WeatherDisplay:10.37,2013-01-19 07:29:00,
2013-01-18 23:34:00,41.5,24.2,30.14,East,86,0.0,0.0,50,0.00,CLR,,0.00,0.0,WeatherDisplay:10.37,2013-01-19 07:34:00,
2013-01-18 23:39:00,41.4,24.6,30.14,East,86,0.0,0.0,51,0.00,CLR,,0.00,0.0,WeatherDisplay:10.37,2013-01-19 07:39:00,
2013-01-18 23:44:00,41.3,25.0,30.14,East,86,0.0,0.0,52,0.00,CLR,,0.00,0.0,WeatherDisplay:10.37,2013-01-19 07:44:00,
2013-01-18 23:49:00,41.2,24.4,30.14,East,86,0.0,0.0,51,0.00,CLR,,0.00,0.0,WeatherDisplay:10.37,2013-01-19 07:49:00,
2013-01-18 23:54:00,41.0,25.2,30.14,East,86,0.0,0.0,53,0.00,CLR,,0.00,0.0,WeatherDisplay:10.37,2013-01-19 07:54:00,
2013-01-18 23:59:00,40.6,24.8,30.14,East,86,0.0,0.0,53,0.00,CLR,,0.00,0.0,WeatherDisplay:10.37,2013-01-19 07:59:00,